contact:dominique.lefevre@mio.osupytheas.fr, maurice.libes@osupytheas.fr, didier.mallarino@osupytheas.fr
Project:EMSO http://www.emso-fr.org/EMSO-France
Depth: 2436.0 m
Title:EMSO Ligure Ouest : Data MII capteur MICROCAT
DateTime_Computer,Latitude,Longitude,Temperature,Conductivity,Pressure,DateTime_Instrument
DateTime_Computer,Latitude,Longitude,degC,S m-1,dbar,DateTime_Instrument
2020-05-04T00:00:56Z,42.805,6.029,13.2979,4.60011,2469.97,2020-5-04T02:01:37Z
2020-05-04T00:04:00Z,42.805,6.029,13.2976,4.59997,2469.97,2020-5-04T02:04:41Z
2020-05-04T00:07:03Z,42.805,6.029,13.2977,4.60007,2469.97,2020-5-04T02:07:44Z
2020-05-04T00:10:06Z,42.805,6.029,13.2979,4.59999,2469.947,2020-5-04T02:10:47Z
2020-05-04T00:13:09Z,42.805,6.029,13.2979,4.60005,2469.97,2020-5-04T02:13:50Z
2020-05-04T00:16:13Z,42.805,6.029,13.2976,4.59998,2469.97,2020-5-04T02:16:54Z
2020-05-04T00:19:16Z,42.805,6.029,13.2979,4.60001,2469.97,2020-5-04T02:19:57Z
2020-05-04T00:22:19Z,42.805,6.029,13.2977,4.59988,2469.993,2020-5-04T02:23:00Z
2020-05-04T00:25:22Z,42.805,6.029,13.2976,4.59988,2469.993,2020-5-04T02:26:03Z
2020-05-04T00:28:25Z,42.805,6.029,13.2984,4.60001,2469.984,2020-5-04T02:29:06Z
2020-05-04T00:31:29Z,42.805,6.029,13.2979,4.59998,2470.007,2020-5-04T02:32:10Z
2020-05-04T00:34:32Z,42.805,6.029,13.2980,4.59988,2469.993,2020-5-04T02:35:13Z
2020-05-04T00:37:35Z,42.805,6.029,13.2976,4.59995,2469.993,2020-5-04T02:38:16Z
2020-05-04T00:40:39Z,42.805,6.029,13.2971,4.59985,2470.03,2020-5-04T02:41:20Z
2020-05-04T00:43:42Z,42.805,6.029,13.2977,4.59996,2469.993,2020-5-04T02:44:23Z
2020-05-04T00:46:45Z,42.805,6.029,13.2979,4.60000,2470.03,2020-5-04T02:47:26Z
2020-05-04T00:49:48Z,42.805,6.029,13.2980,4.59994,2469.993,2020-5-04T02:50:29Z
2020-05-04T00:52:52Z,42.805,6.029,13.2979,4.59986,2469.993,2020-5-04T02:53:33Z
2020-05-04T00:55:55Z,42.805,6.029,13.2974,4.59992,2470.053,2020-5-04T02:56:36Z
2020-05-04T00:58:58Z,42.805,6.029,13.2976,4.59987,2470.017,2020-5-04T02:59:39Z
2020-05-04T01:02:01Z,42.805,6.029,13.2979,4.59989,2470.03,2020-5-04T03:02:42Z
2020-05-04T01:05:05Z,42.805,6.029,13.2979,4.60007,2470.03,2020-5-04T03:05:46Z
2020-05-04T01:08:08Z,42.805,6.029,13.2979,4.59988,2470.03,2020-5-04T03:08:49Z
2020-05-04T01:11:11Z,42.805,6.029,13.2978,4.59992,2470.063,2020-5-04T03:11:52Z
2020-05-04T01:14:14Z,42.805,6.029,13.2978,4.59990,2469.993,2020-5-04T03:14:55Z
2020-05-04T01:17:18Z,42.805,6.029,13.2979,4.59991,2470.04,2020-5-04T03:17:59Z
2020-05-04T01:20:21Z,42.805,6.029,13.2971,4.59984,2470.017,2020-5-04T03:21:02Z
2020-05-04T01:23:24Z,42.805,6.029,13.2975,4.59981,2470.017,2020-5-04T03:24:05Z
2020-05-04T01:26:27Z,42.805,6.029,13.2980,4.59987,2470.017,2020-5-04T03:27:08Z
2020-05-04T01:29:31Z,42.805,6.029,13.2973,4.59995,2470.017,2020-5-04T03:30:12Z
2020-05-04T01:32:34Z,42.805,6.029,13.2976,4.59991,2470.053,2020-5-04T03:33:15Z
2020-05-04T01:35:37Z,42.805,6.029,13.2980,4.59993,2470.04,2020-5-04T03:36:18Z
2020-05-04T01:38:40Z,42.805,6.029,13.2981,4.59987,2470.03,2020-5-04T03:39:21Z
2020-05-04T01:41:44Z,42.805,6.029,13.2976,4.59988,2470.007,2020-5-04T03:42:25Z
2020-05-04T01:44:47Z,42.805,6.029,13.2978,4.59988,2470.077,2020-5-04T03:45:28Z
2020-05-04T01:47:50Z,42.805,6.029,13.2979,4.59981,2470.063,2020-5-04T03:48:31Z
2020-05-04T01:50:53Z,42.805,6.029,13.2979,4.59985,2470.063,2020-5-04T03:51:34Z
2020-05-04T01:53:57Z,42.805,6.029,13.2968,4.59981,2470.017,2020-5-04T03:54:38Z
2020-05-04T01:57:00Z,42.805,6.029,13.2975,4.59982,2470.053,2020-5-04T03:57:41Z
2020-05-04T02:00:03Z,42.805,6.029,13.2970,4.59981,2470.077,2020-5-04T04:00:44Z
2020-05-04T02:03:06Z,42.805,6.029,13.2967,4.59984,2470.087,2020-5-04T04:03:47Z
2020-05-04T02:06:10Z,42.805,6.029,13.2983,4.59988,2470.063,2020-5-04T04:06:51Z
2020-05-04T02:09:13Z,42.805,6.029,13.2973,4.59990,2470.077,2020-5-04T04:09:54Z
2020-05-04T02:12:16Z,42.805,6.029,13.2975,4.59987,2470.063,2020-5-04T04:12:57Z
2020-05-04T02:15:20Z,42.805,6.029,13.2979,4.59994,2470.063,2020-5-04T04:16:01Z
2020-05-04T02:18:23Z,42.805,6.029,13.2971,4.59994,2470.063,2020-5-04T04:19:04Z
2020-05-04T02:21:26Z,42.805,6.029,13.2977,4.59994,2470.11,2020-5-04T04:22:07Z
2020-05-04T02:24:29Z,42.805,6.029,13.2974,4.59998,2470.1,2020-5-04T04:25:10Z
2020-05-04T02:27:32Z,42.805,6.029,13.2976,4.59989,2470.063,2020-5-04T04:28:13Z
2020-05-04T02:30:36Z,42.805,6.029,13.2971,4.60011,2470.1,2020-5-04T04:31:17Z
2020-05-04T02:33:39Z,42.805,6.029,13.2974,4.60008,2470.1,2020-5-04T04:34:20Z
2020-05-04T02:36:42Z,42.805,6.029,13.2979,4.59989,2470.077,2020-5-04T04:37:23Z
2020-05-04T02:39:45Z,42.805,6.029,13.2970,4.59984,2470.11,2020-5-04T04:40:26Z
2020-05-04T02:42:49Z,42.805,6.029,13.2972,4.59991,2470.087,2020-5-04T04:43:30Z
2020-05-04T02:45:52Z,42.805,6.029,13.2976,4.60004,2470.087,2020-5-04T04:46:33Z
2020-05-04T02:48:55Z,42.805,6.029,13.2973,4.59990,2470.147,2020-5-04T04:49:36Z
2020-05-04T02:51:58Z,42.805,6.029,13.2974,4.59984,2470.133,2020-5-04T04:52:39Z
2020-05-04T02:55:02Z,42.805,6.029,13.2978,4.59989,2470.087,2020-5-04T04:55:43Z
2020-05-04T02:58:05Z,42.805,6.029,13.2976,4.59991,2470.087,2020-5-04T04:58:46Z
2020-05-04T03:01:08Z,42.805,6.029,13.2974,4.59991,2470.171,2020-5-04T05:01:49Z
2020-05-04T03:04:11Z,42.805,6.029,13.2979,4.59999,2470.11,2020-5-04T05:04:52Z
2020-05-04T03:07:14Z,42.805,6.029,13.2980,4.60001,2470.124,2020-5-04T05:07:56Z
2020-05-04T03:10:18Z,42.805,6.029,13.2981,4.59988,2470.133,2020-5-04T05:10:59Z
2020-05-04T03:13:21Z,42.805,6.029,13.2977,4.59990,2470.156,2020-5-04T05:14:02Z
2020-05-04T03:16:24Z,42.805,6.029,13.2978,4.59986,2470.133,2020-5-04T05:17:05Z
2020-05-04T03:19:27Z,42.805,6.029,13.2974,4.59986,2470.147,2020-5-04T05:20:08Z
2020-05-04T03:22:31Z,42.805,6.029,13.2973,4.59983,2470.147,2020-5-04T05:23:12Z
2020-05-04T03:25:34Z,42.805,6.029,13.2968,4.59989,2470.133,2020-5-04T05:26:15Z
2020-05-04T03:28:37Z,42.805,6.029,13.2979,4.59990,2470.147,2020-5-04T05:29:18Z
2020-05-04T03:31:40Z,42.805,6.029,13.2976,4.59988,2470.147,2020-5-04T05:32:21Z
2020-05-04T03:34:44Z,42.805,6.029,13.2972,4.59986,2470.133,2020-5-04T05:35:25Z
2020-05-04T03:37:47Z,42.805,6.029,13.2976,4.59976,2470.133,2020-5-04T05:38:28Z
2020-05-04T03:40:50Z,42.805,6.029,13.2977,4.60014,2470.147,2020-5-04T05:41:31Z
2020-05-04T03:43:53Z,42.805,6.029,13.2979,4.59992,2470.147,2020-5-04T05:44:35Z
2020-05-04T03:46:57Z,42.805,6.029,13.2982,4.60018,2470.156,2020-5-04T05:47:38Z
2020-05-04T03:50:00Z,42.805,6.029,13.2974,4.59996,2470.133,2020-5-04T05:50:41Z
2020-05-04T03:53:03Z,42.805,6.029,13.2982,4.59988,2470.147,2020-5-04T05:53:45Z
2020-05-04T03:56:07Z,42.805,6.029,13.2976,4.59986,2470.147,2020-5-04T05:56:48Z
2020-05-04T03:59:10Z,42.805,6.029,13.2976,4.60003,2470.11,2020-5-04T05:59:51Z
2020-05-04T04:02:13Z,42.805,6.029,13.2972,4.59986,2470.133,2020-5-04T06:02:54Z
2020-05-04T04:05:16Z,42.805,6.029,13.2969,4.59988,2470.119,2020-5-04T06:05:57Z
2020-05-04T04:08:20Z,42.805,6.029,13.2974,4.59991,2470.156,2020-5-04T06:09:01Z
2020-05-04T04:11:23Z,42.805,6.029,13.2977,4.59997,2470.147,2020-5-04T06:12:04Z
2020-05-04T04:14:26Z,42.805,6.029,13.2975,4.59985,2470.156,2020-5-04T06:15:07Z
2020-05-04T04:17:29Z,42.805,6.029,13.2974,4.59984,2470.156,2020-5-04T06:18:10Z
2020-05-04T04:20:33Z,42.805,6.029,13.2978,4.60003,2470.18,2020-5-04T06:21:14Z
2020-05-04T04:23:36Z,42.805,6.029,13.2975,4.59986,2470.119,2020-5-04T06:24:17Z
2020-05-04T04:26:39Z,42.805,6.029,13.2979,4.59991,2470.156,2020-5-04T06:27:20Z
2020-05-04T04:29:42Z,42.805,6.029,13.2982,4.59989,2470.156,2020-5-04T06:30:23Z
2020-05-04T04:32:45Z,42.805,6.029,13.2975,4.59989,2470.133,2020-5-04T06:33:26Z
2020-05-04T04:35:49Z,42.805,6.029,13.2974,4.59999,2470.156,2020-5-04T06:36:30Z
2020-05-04T04:38:52Z,42.805,6.029,13.2978,4.59998,2470.156,2020-5-04T06:39:33Z
2020-05-04T04:41:55Z,42.805,6.029,13.2974,4.59985,2470.156,2020-5-04T06:42:36Z
2020-05-04T04:44:59Z,42.805,6.029,13.2970,4.59984,2470.147,2020-5-04T06:45:40Z
2020-05-04T04:48:02Z,42.805,6.029,13.2975,4.59981,2470.18,2020-5-04T06:48:43Z
2020-05-04T04:51:05Z,42.805,6.029,13.2970,4.59978,2470.171,2020-5-04T06:51:46Z
2020-05-04T04:54:08Z,42.805,6.029,13.2973,4.59999,2470.171,2020-5-04T06:54:49Z
2020-05-04T04:57:11Z,42.805,6.029,13.2973,4.59983,2470.203,2020-5-04T06:57:53Z
2020-05-04T05:00:15Z,42.805,6.029,13.2976,4.60003,2470.156,2020-5-04T07:00:56Z
2020-05-04T05:03:18Z,42.805,6.029,13.2974,4.59986,2470.133,2020-5-04T07:03:59Z
2020-05-04T05:06:21Z,42.805,6.029,13.2978,4.59982,2470.194,2020-5-04T07:07:02Z
2020-05-04T05:09:24Z,42.805,6.029,13.2975,4.60000,2470.156,2020-5-04T07:10:06Z
2020-05-04T05:12:28Z,42.805,6.029,13.2979,4.60002,2470.171,2020-5-04T07:13:09Z
2020-05-04T05:15:31Z,42.805,6.029,13.2978,4.59986,2470.156,2020-5-04T07:16:12Z
2020-05-04T05:18:34Z,42.805,6.029,13.2972,4.59983,2470.133,2020-5-04T07:19:15Z
2020-05-04T05:21:37Z,42.805,6.029,13.2974,4.59988,2470.194,2020-5-04T07:22:18Z
2020-05-04T05:24:41Z,42.805,6.029,13.2973,4.59986,2470.171,2020-5-04T07:25:22Z
2020-05-04T05:27:44Z,42.805,6.029,13.2971,4.59989,2470.18,2020-5-04T07:28:25Z
2020-05-04T05:30:47Z,42.805,6.029,13.2974,4.60001,2470.133,2020-5-04T07:31:28Z
2020-05-04T05:33:51Z,42.805,6.029,13.2976,4.59989,2470.124,2020-5-04T07:34:32Z
2020-05-04T05:36:54Z,42.805,6.029,13.2974,4.59983,2470.156,2020-5-04T07:37:35Z
2020-05-04T05:39:57Z,42.805,6.029,13.2971,4.59985,2470.18,2020-5-04T07:40:38Z
2020-05-04T05:43:00Z,42.805,6.029,13.2977,4.59992,2470.156,2020-5-04T07:43:41Z
2020-05-04T05:46:03Z,42.805,6.029,13.2983,4.59999,2470.156,2020-5-04T07:46:45Z
2020-05-04T05:49:07Z,42.805,6.029,13.2974,4.59996,2470.11,2020-5-04T07:49:48Z
2020-05-04T05:52:10Z,42.805,6.029,13.2979,4.59992,2470.147,2020-5-04T07:52:51Z
2020-05-04T05:55:13Z,42.805,6.029,13.2971,4.59994,2470.171,2020-5-04T07:55:54Z
2020-05-04T05:58:16Z,42.805,6.029,13.2974,4.59980,2470.133,2020-5-04T07:58:58Z
2020-05-04T06:01:20Z,42.805,6.029,13.2977,4.59984,2470.156,2020-5-04T08:02:01Z
2020-05-04T06:04:23Z,42.805,6.029,13.2979,4.59985,2470.156,2020-5-04T08:05:04Z
2020-05-04T06:07:26Z,42.805,6.029,13.2976,4.60007,2470.171,2020-5-04T08:08:07Z
2020-05-04T06:10:29Z,42.805,6.029,13.2971,4.59989,2470.194,2020-5-04T08:11:10Z
2020-05-04T06:13:32Z,42.805,6.029,13.2969,4.59988,2470.133,2020-5-04T08:14:14Z
2020-05-04T06:16:36Z,42.805,6.029,13.2976,4.59993,2470.194,2020-5-04T08:17:17Z
2020-05-04T06:19:39Z,42.805,6.029,13.2976,4.59991,2470.133,2020-5-04T08:20:20Z
2020-05-04T06:22:43Z,42.805,6.029,13.2971,4.59986,2470.133,2020-5-04T08:23:24Z
2020-05-04T06:25:46Z,42.805,6.029,13.2975,4.59998,2470.156,2020-5-04T08:26:27Z
2020-05-04T06:28:49Z,42.805,6.029,13.2973,4.59991,2470.171,2020-5-04T08:29:30Z
2020-05-04T06:31:52Z,42.805,6.029,13.2976,4.59988,2470.124,2020-5-04T08:32:33Z
2020-05-04T06:34:55Z,42.805,6.029,13.2979,4.59993,2470.11,2020-5-04T08:35:37Z
2020-05-04T06:37:59Z,42.805,6.029,13.2979,4.60006,2470.133,2020-5-04T08:38:40Z
2020-05-04T06:41:02Z,42.805,6.029,13.2977,4.60000,2470.171,2020-5-04T08:41:43Z
2020-05-04T06:44:05Z,42.805,6.029,13.2971,4.60001,2470.147,2020-5-04T08:44:46Z
2020-05-04T06:47:09Z,42.805,6.029,13.2974,4.60003,2470.11,2020-5-04T08:47:50Z
2020-05-04T06:50:12Z,42.805,6.029,13.2982,4.60000,2470.156,2020-5-04T08:50:53Z
2020-05-04T06:53:15Z,42.805,6.029,13.2981,4.59994,2470.147,2020-5-04T08:53:56Z
2020-05-04T06:56:18Z,42.805,6.029,13.2976,4.59982,2470.133,2020-5-04T08:56:59Z
2020-05-04T06:59:21Z,42.805,6.029,13.2974,4.60003,2470.11,2020-5-04T09:00:03Z
2020-05-04T07:02:25Z,42.805,6.029,13.2977,4.60014,2470.11,2020-5-04T09:03:06Z
2020-05-04T07:05:28Z,42.805,6.029,13.2974,4.60000,2470.11,2020-5-04T09:06:09Z
2020-05-04T07:08:31Z,42.805,6.029,13.2979,4.59994,2470.087,2020-5-04T09:09:12Z
2020-05-04T07:11:35Z,42.805,6.029,13.2971,4.59997,2470.11,2020-5-04T09:12:16Z
2020-05-04T07:14:38Z,42.805,6.029,13.2983,4.60014,2470.11,2020-5-04T09:15:19Z
2020-05-04T07:17:41Z,42.805,6.029,13.2983,4.60001,2470.11,2020-5-04T09:18:22Z
2020-05-04T07:20:44Z,42.805,6.029,13.2990,4.60010,2470.1,2020-5-04T09:21:25Z
2020-05-04T07:23:47Z,42.805,6.029,13.2983,4.60017,2470.133,2020-5-04T09:24:29Z
2020-05-04T07:26:51Z,42.805,6.029,13.2978,4.59994,2470.1,2020-5-04T09:27:32Z
2020-05-04T07:29:54Z,42.805,6.029,13.2976,4.59990,2470.147,2020-5-04T09:30:35Z
2020-05-04T07:32:57Z,42.805,6.029,13.2983,4.60012,2470.1,2020-5-04T09:33:38Z
2020-05-04T07:36:00Z,42.805,6.029,13.2982,4.60014,2470.124,2020-5-04T09:36:42Z
2020-05-04T07:39:04Z,42.805,6.029,13.2990,4.60004,2470.11,2020-5-04T09:39:45Z
2020-05-04T07:42:07Z,42.805,6.029,13.2973,4.59995,2470.04,2020-5-04T09:42:48Z
2020-05-04T07:45:10Z,42.805,6.029,13.2978,4.59986,2470.087,2020-5-04T09:45:51Z
2020-05-04T07:48:13Z,42.805,6.029,13.2972,4.59987,2470.124,2020-5-04T09:48:55Z
2020-05-04T07:51:17Z,42.805,6.029,13.2977,4.59994,2470.11,2020-5-04T09:51:58Z
2020-05-04T07:54:20Z,42.805,6.029,13.2995,4.60013,2470.1,2020-5-04T09:55:01Z
2020-05-04T07:57:23Z,42.805,6.029,13.2979,4.60011,2470.063,2020-5-04T09:58:04Z
2020-05-04T08:00:26Z,42.805,6.029,13.2976,4.59997,2470.077,2020-5-04T10:01:08Z
2020-05-04T08:03:30Z,42.805,6.029,13.2974,4.59986,2470.077,2020-5-04T10:04:11Z
2020-05-04T08:06:33Z,42.805,6.029,13.2993,4.60017,2470.063,2020-5-04T10:07:14Z
2020-05-04T08:09:36Z,42.805,6.029,13.2974,4.59991,2470.063,2020-5-04T10:10:17Z
2020-05-04T08:12:39Z,42.805,6.029,13.2971,4.59987,2470.063,2020-5-04T10:13:20Z
2020-05-04T08:15:43Z,42.805,6.029,13.2981,4.60003,2470.053,2020-5-04T10:16:24Z
2020-05-04T08:18:46Z,42.805,6.029,13.2990,4.60016,2470.017,2020-5-04T10:19:27Z
2020-05-04T08:21:49Z,42.805,6.029,13.2982,4.60027,2470.063,2020-5-04T10:22:30Z
2020-05-04T08:24:52Z,42.805,6.029,13.2979,4.60021,2470.053,2020-5-04T10:25:33Z
2020-05-04T08:27:55Z,42.805,6.029,13.2986,4.60021,2470.063,2020-5-04T10:28:37Z
2020-05-04T08:30:59Z,42.805,6.029,13.2976,4.60003,2470.063,2020-5-04T10:31:40Z
2020-05-04T08:34:02Z,42.805,6.029,13.2974,4.59995,2470.053,2020-5-04T10:34:43Z
2020-05-04T08:37:05Z,42.805,6.029,13.2976,4.60014,2470.053,2020-5-04T10:37:46Z
2020-05-04T08:40:08Z,42.805,6.029,13.2974,4.60007,2470.063,2020-5-04T10:40:49Z
2020-05-04T08:43:12Z,42.805,6.029,13.2980,4.60001,2470.053,2020-5-04T10:43:53Z
2020-05-04T08:46:15Z,42.805,6.029,13.2971,4.59988,2470.03,2020-5-04T10:46:56Z
2020-05-04T08:49:18Z,42.805,6.029,13.2982,4.60003,2470.04,2020-5-04T10:49:59Z
2020-05-04T08:52:21Z,42.805,6.029,13.2998,4.60019,2470.04,2020-5-04T10:53:02Z
2020-05-04T08:55:25Z,42.805,6.029,13.3002,4.60016,2470.03,2020-5-04T10:56:06Z
2020-05-04T08:58:28Z,42.805,6.029,13.2996,4.60021,2470.017,2020-5-04T10:59:09Z
2020-05-04T09:01:31Z,42.805,6.029,13.2998,4.60023,2470.017,2020-5-04T11:02:12Z
2020-05-04T09:04:34Z,42.805,6.029,13.3006,4.60021,2469.993,2020-5-04T11:05:15Z
2020-05-04T09:07:37Z,42.805,6.029,13.3008,4.60016,2470.017,2020-5-04T11:08:19Z
2020-05-04T09:10:41Z,42.805,6.029,13.2989,4.60032,2469.993,2020-5-04T11:11:22Z
2020-05-04T09:13:44Z,42.805,6.029,13.2999,4.60025,2470.03,2020-5-04T11:14:25Z
2020-05-04T09:16:47Z,42.805,6.029,13.2992,4.60018,2470.053,2020-5-04T11:17:28Z
2020-05-04T09:19:50Z,42.805,6.029,13.3000,4.60001,2470.007,2020-5-04T11:20:31Z
2020-05-04T09:22:54Z,42.805,6.029,13.2991,4.60019,2469.97,2020-5-04T11:23:35Z
2020-05-04T09:25:57Z,42.805,6.029,13.2993,4.60036,2469.984,2020-5-04T11:26:38Z
2020-05-04T09:29:00Z,42.805,6.029,13.2982,4.60026,2469.993,2020-5-04T11:29:41Z
2020-05-04T09:32:03Z,42.805,6.029,13.2988,4.59992,2470.017,2020-5-04T11:32:44Z
2020-05-04T09:35:06Z,42.805,6.029,13.2985,4.60014,2469.993,2020-5-04T11:35:47Z
2020-05-04T09:38:10Z,42.805,6.029,13.2992,4.60023,2470.007,2020-5-04T11:38:51Z
2020-05-04T09:41:13Z,42.805,6.029,13.2998,4.60026,2469.993,2020-5-04T11:41:54Z
2020-05-04T09:44:16Z,42.805,6.029,13.2991,4.60025,2469.984,2020-5-04T11:44:57Z
2020-05-04T09:47:19Z,42.805,6.029,13.3009,4.60037,2469.993,2020-5-04T11:48:00Z
2020-05-04T09:50:23Z,42.805,6.029,13.2999,4.60024,2469.984,2020-5-04T11:51:04Z
2020-05-04T09:53:26Z,42.805,6.029,13.3002,4.60039,2469.933,2020-5-04T11:54:07Z
2020-05-04T09:56:29Z,42.805,6.029,13.2977,4.60025,2470.03,2020-5-04T11:57:10Z
2020-05-04T09:59:32Z,42.805,6.029,13.2976,4.60023,2469.947,2020-5-04T12:00:13Z
2020-05-04T10:02:35Z,42.805,6.029,13.2987,4.60019,2469.993,2020-5-04T12:03:17Z
2020-05-04T10:05:39Z,42.805,6.029,13.3011,4.60051,2469.984,2020-5-04T12:06:20Z
2020-05-04T10:08:42Z,42.805,6.029,13.3006,4.60021,2469.96,2020-5-04T12:09:23Z
2020-05-04T10:11:45Z,42.805,6.029,13.3012,4.60033,2469.993,2020-5-04T12:12:26Z
2020-05-04T10:14:48Z,42.805,6.029,13.3015,4.60076,2469.984,2020-5-04T12:15:29Z
2020-05-04T10:17:52Z,42.805,6.029,13.3006,4.60035,2469.96,2020-5-04T12:18:33Z
2020-05-04T10:20:55Z,42.805,6.029,13.2978,4.60033,2469.96,2020-5-04T12:21:36Z
2020-05-04T10:23:58Z,42.805,6.029,13.2996,4.60026,2469.937,2020-5-04T12:24:39Z
2020-05-04T10:27:01Z,42.805,6.029,13.2996,4.60022,2469.993,2020-5-04T12:27:42Z
2020-05-04T10:30:05Z,42.805,6.029,13.3019,4.60021,2469.947,2020-5-04T12:30:46Z
2020-05-04T10:33:08Z,42.805,6.029,13.3001,4.60041,2469.97,2020-5-04T12:33:49Z
2020-05-04T10:36:11Z,42.805,6.029,13.3005,4.60035,2469.984,2020-5-04T12:36:52Z
2020-05-04T10:39:14Z,42.805,6.029,13.3001,4.60035,2469.96,2020-5-04T12:39:55Z
2020-05-04T10:42:18Z,42.805,6.029,13.3000,4.60026,2469.96,2020-5-04T12:42:59Z
2020-05-04T10:45:21Z,42.805,6.029,13.2999,4.60065,2469.96,2020-5-04T12:46:02Z
2020-05-04T10:48:24Z,42.805,6.029,13.3005,4.60047,2469.96,2020-5-04T12:49:05Z
2020-05-04T10:51:27Z,42.805,6.029,13.3003,4.60037,2469.984,2020-5-04T12:52:09Z
2020-05-04T10:54:31Z,42.805,6.029,13.3003,4.60002,2469.937,2020-5-04T12:55:12Z
2020-05-04T10:57:34Z,42.805,6.029,13.2976,4.59996,2469.97,2020-5-04T12:58:15Z
2020-05-04T11:00:37Z,42.805,6.029,13.2992,4.60011,2469.947,2020-5-04T13:01:18Z
2020-05-04T11:03:41Z,42.805,6.029,13.3004,4.60034,2469.947,2020-5-04T13:04:22Z
2020-05-04T11:06:44Z,42.805,6.029,13.2990,4.60043,2469.923,2020-5-04T13:07:25Z
2020-05-04T11:09:47Z,42.805,6.029,13.3000,4.59989,2469.97,2020-5-04T13:10:28Z
2020-05-04T11:12:50Z,42.805,6.029,13.3005,4.59986,2469.96,2020-5-04T13:13:31Z
2020-05-04T11:15:54Z,42.805,6.029,13.2982,4.59996,2469.947,2020-5-04T13:16:35Z
2020-05-04T11:18:57Z,42.805,6.029,13.2984,4.60039,2469.984,2020-5-04T13:19:38Z
2020-05-04T11:22:00Z,42.805,6.029,13.3007,4.60028,2469.923,2020-5-04T13:22:41Z
2020-05-04T11:25:03Z,42.805,6.029,13.2991,4.60046,2469.937,2020-5-04T13:25:44Z
2020-05-04T11:28:07Z,42.805,6.029,13.2997,4.60009,2469.923,2020-5-04T13:28:48Z
2020-05-04T11:31:10Z,42.805,6.029,13.3009,4.59995,2469.923,2020-5-04T13:31:51Z
2020-05-04T11:34:13Z,42.805,6.029,13.3006,4.59991,2469.923,2020-5-04T13:34:54Z
2020-05-04T11:37:16Z,42.805,6.029,13.2996,4.59985,2469.923,2020-5-04T13:37:57Z
2020-05-04T11:40:19Z,42.805,6.029,13.2988,4.59996,2469.947,2020-5-04T13:41:01Z
2020-05-04T11:43:23Z,42.805,6.029,13.2984,4.59999,2469.984,2020-5-04T13:44:04Z
2020-05-04T11:46:26Z,42.805,6.029,13.3010,4.60003,2469.923,2020-5-04T13:47:07Z
2020-05-04T11:49:29Z,42.805,6.029,13.2983,4.59988,2469.947,2020-5-04T13:50:10Z
2020-05-04T11:52:32Z,42.805,6.029,13.2983,4.60016,2469.947,2020-5-04T13:53:14Z
2020-05-04T11:55:36Z,42.805,6.029,13.2976,4.60001,2469.96,2020-5-04T13:56:17Z
2020-05-04T11:58:39Z,42.805,6.029,13.3025,4.60043,2469.96,2020-5-04T13:59:20Z
2020-05-04T12:01:42Z,42.805,6.029,13.2995,4.60016,2469.947,2020-5-04T14:02:23Z
2020-05-04T12:04:46Z,42.805,6.029,13.3003,4.60017,2469.937,2020-5-04T14:05:27Z
2020-05-04T12:07:49Z,42.805,6.029,13.3004,4.60011,2469.914,2020-5-04T14:08:30Z
2020-05-04T12:10:52Z,42.805,6.029,13.3014,4.60024,2469.947,2020-5-04T14:11:33Z
2020-05-04T12:13:55Z,42.805,6.029,13.3004,4.60021,2469.923,2020-5-04T14:14:36Z
2020-05-04T12:16:58Z,42.805,6.029,13.2977,4.60034,2469.96,2020-5-04T14:17:40Z
2020-05-04T12:20:02Z,42.805,6.029,13.2986,4.60079,2469.947,2020-5-04T14:20:43Z
2020-05-04T12:23:05Z,42.805,6.029,13.3001,4.60003,2469.937,2020-5-04T14:23:46Z
2020-05-04T12:26:08Z,42.805,6.029,13.3019,4.60019,2469.914,2020-5-04T14:26:49Z
2020-05-04T12:29:11Z,42.805,6.029,13.3007,4.60040,2469.923,2020-5-04T14:29:53Z
2020-05-04T12:32:15Z,42.805,6.029,13.3017,4.59986,2469.937,2020-5-04T14:32:56Z
2020-05-04T12:35:18Z,42.805,6.029,13.2986,4.59986,2469.923,2020-5-04T14:35:59Z
2020-05-04T12:38:21Z,42.805,6.029,13.3004,4.60009,2469.96,2020-5-04T14:39:02Z
2020-05-04T12:41:24Z,42.805,6.029,13.3050,4.60029,2469.937,2020-5-04T14:42:05Z
2020-05-04T12:44:28Z,42.805,6.029,13.3042,4.60024,2469.937,2020-5-04T14:45:09Z
2020-05-04T12:47:31Z,42.805,6.029,13.3054,4.60001,2469.96,2020-5-04T14:48:12Z
2020-05-04T12:50:34Z,42.805,6.029,13.2986,4.60001,2469.96,2020-5-04T14:51:15Z
2020-05-04T12:53:37Z,42.805,6.029,13.2979,4.60049,2469.97,2020-5-04T14:54:18Z
2020-05-04T12:56:41Z,42.805,6.029,13.2982,4.60054,2469.96,2020-5-04T14:57:22Z
2020-05-04T12:59:44Z,42.805,6.029,13.2998,4.60056,2469.97,2020-5-04T15:00:25Z
2020-05-04T13:02:47Z,42.805,6.029,13.2998,4.60043,2469.984,2020-5-04T15:03:28Z
2020-05-04T13:05:50Z,42.805,6.029,13.3014,4.59996,2470.007,2020-5-04T15:06:31Z
2020-05-04T13:08:54Z,42.805,6.029,13.3043,4.60045,2469.97,2020-5-04T15:09:35Z
2020-05-04T13:11:57Z,42.805,6.029,13.3047,4.60026,2470.007,2020-5-04T15:12:38Z
2020-05-04T13:15:00Z,42.805,6.029,13.3051,4.60041,2470.017,2020-5-04T15:15:41Z
2020-05-04T13:18:03Z,42.805,6.029,13.3034,4.60009,2469.947,2020-5-04T15:18:44Z
2020-05-04T13:21:06Z,42.805,6.029,13.3015,4.59992,2469.97,2020-5-04T15:21:48Z
2020-05-04T13:24:10Z,42.805,6.029,13.3011,4.60009,2469.984,2020-5-04T15:24:51Z
2020-05-04T13:27:13Z,42.805,6.029,13.3021,4.60033,2469.984,2020-5-04T15:27:54Z
2020-05-04T13:30:16Z,42.805,6.029,13.3039,4.60053,2469.947,2020-5-04T15:30:57Z
2020-05-04T13:33:19Z,42.805,6.029,13.3036,4.59999,2469.984,2020-5-04T15:34:00Z
2020-05-04T13:36:23Z,42.805,6.029,13.3027,4.60015,2469.96,2020-5-04T15:37:04Z
2020-05-04T13:39:26Z,42.805,6.029,13.3002,4.60031,2469.984,2020-5-04T15:40:07Z
2020-05-04T13:42:29Z,42.805,6.029,13.2998,4.60026,2469.97,2020-5-04T15:43:10Z
2020-05-04T13:45:32Z,42.805,6.029,13.2996,4.60072,2469.97,2020-5-04T15:46:13Z
2020-05-04T13:48:36Z,42.805,6.029,13.2999,4.60035,2469.97,2020-5-04T15:49:17Z
2020-05-04T13:51:39Z,42.805,6.029,13.3001,4.60064,2469.993,2020-5-04T15:52:20Z
2020-05-04T13:54:42Z,42.805,6.029,13.3004,4.60079,2470.017,2020-5-04T15:55:23Z
2020-05-04T13:57:45Z,42.805,6.029,13.3039,4.60016,2470.017,2020-5-04T15:58:26Z
2020-05-04T14:00:48Z,42.805,6.029,13.3021,4.60049,2469.993,2020-5-04T16:01:30Z
2020-05-04T14:03:52Z,42.805,6.029,13.3040,4.60000,2470.007,2020-5-04T16:04:33Z
2020-05-04T14:06:55Z,42.805,6.029,13.3048,4.60028,2469.984,2020-5-04T16:07:36Z
2020-05-04T14:09:58Z,42.805,6.029,13.3036,4.60039,2469.993,2020-5-04T16:10:39Z
2020-05-04T14:13:01Z,42.805,6.029,13.2990,4.60062,2469.993,2020-5-04T16:13:42Z
2020-05-04T14:16:05Z,42.805,6.029,13.3014,4.60029,2469.993,2020-5-04T16:16:46Z
2020-05-04T14:19:08Z,42.805,6.029,13.3021,4.60060,2469.993,2020-5-04T16:19:49Z
2020-05-04T14:22:11Z,42.805,6.029,13.3006,4.60042,2469.993,2020-5-04T16:22:52Z
2020-05-04T14:25:14Z,42.805,6.029,13.3021,4.60011,2470.03,2020-5-04T16:25:55Z
2020-05-04T14:28:17Z,42.805,6.029,13.2971,4.60002,2470.03,2020-5-04T16:28:59Z
2020-05-04T14:31:21Z,42.805,6.029,13.2968,4.59976,2470.017,2020-5-04T16:32:02Z
2020-05-04T14:34:24Z,42.805,6.029,13.2969,4.59973,2470.053,2020-5-04T16:35:05Z
2020-05-04T14:37:27Z,42.805,6.029,13.2964,4.59970,2470.017,2020-5-04T16:38:08Z
2020-05-04T14:40:30Z,42.805,6.029,13.2967,4.59968,2470.04,2020-5-04T16:41:11Z
2020-05-04T14:43:33Z,42.805,6.029,13.2968,4.59969,2470.04,2020-5-04T16:44:15Z
2020-05-04T14:46:37Z,42.805,6.029,13.2968,4.59973,2470.04,2020-5-04T16:47:18Z
2020-05-04T14:49:40Z,42.805,6.029,13.2971,4.59974,2470.04,2020-5-04T16:50:21Z
2020-05-04T14:52:43Z,42.805,6.029,13.2971,4.59979,2470.063,2020-5-04T16:53:24Z
2020-05-04T14:55:46Z,42.805,6.029,13.2966,4.59976,2470.04,2020-5-04T16:56:27Z
2020-05-04T14:58:50Z,42.805,6.029,13.2971,4.59976,2470.04,2020-5-04T16:59:31Z
2020-05-04T15:01:53Z,42.805,6.029,13.2967,4.59978,2470.077,2020-5-04T17:02:34Z
2020-05-04T15:04:56Z,42.805,6.029,13.2968,4.59973,2470.053,2020-5-04T17:05:37Z
2020-05-04T15:07:59Z,42.805,6.029,13.2968,4.59972,2470.077,2020-5-04T17:08:40Z
2020-05-04T15:11:03Z,42.805,6.029,13.2968,4.59973,2470.04,2020-5-04T17:11:44Z
2020-05-04T15:14:06Z,42.805,6.029,13.2970,4.59974,2470.087,2020-5-04T17:14:47Z